TimeCST,TemperatureF,Dew PointF,Humidity,Sea Level PressureIn,VisibilityMPH,Wind Direction,Wind SpeedMPH,Gust SpeedMPH,PrecipitationIn,Events,Conditions,WindDirDegrees,DateUTC
12:13 AM,33.8,30.2,87,29.50,10.0,Calm,Calm,-,N/A,,Overcast,0,2012-12-16 06:13:00
12:33 AM,33.8,30.2,87,29.49,10.0,Calm,Calm,-,N/A,,Light Drizzle,0,2012-12-16 06:33:00
12:55 AM,33.8,30.2,87,29.49,7.0,Calm,Calm,-,N/A,,Drizzle,0,2012-12-16 06:55:00
1:13 AM,33.8,30.2,87,29.49,5.0,Calm,Calm,-,N/A,Rain,Light Rain,0,2012-12-16 07:13:00
1:53 AM,32.0,30.2,93,29.49,5.0,Calm,Calm,-,0.01,,Light Drizzle,0,2012-12-16 07:53:00
2:13 AM,32.0,30.2,93,29.49,7.0,Calm,Calm,-,0.01,,Drizzle,0,2012-12-16 08:13:00
2:53 AM,32.0,30.2,93,29.50,10.0,Calm,Calm,-,N/A,,Overcast,0,2012-12-16 08:53:00
3:13 AM,32.0,30.2,93,29.50,7.0,Calm,Calm,-,0.01,,Drizzle,0,2012-12-16 09:13:00
3:33 AM,32.0,30.2,93,29.50,7.0,Calm,Calm,-,0.01,,Drizzle,0,2012-12-16 09:33:00
3:53 AM,32.0,30.2,93,29.50,10.0,Calm,Calm,-,N/A,,Light Drizzle,0,2012-12-16 09:53:00
4:13 AM,33.8,30.2,87,29.50,10.0,Calm,Calm,-,N/A,,Light Drizzle,0,2012-12-16 10:13:00
4:33 AM,33.8,30.2,87,29.51,10.0,Calm,Calm,-,N/A,Rain,Rain,0,2012-12-16 10:33:00
4:53 AM,33.8,30.2,87,29.51,7.0,Calm,Calm,-,N/A,Rain,Light Rain,0,2012-12-16 10:53:00
5:13 AM,33.8,30.2,87,29.51,10.0,Calm,Calm,-,N/A,Rain,Rain,0,2012-12-16 11:13:00
5:53 AM,32.0,30.2,93,29.52,7.0,Calm,Calm,-,N/A,Rain,Light Rain,0,2012-12-16 11:53:00
6:13 AM,32.0,28.4,87,29.52,7.0,Calm,Calm,-,0.01,Rain,Light Rain,0,2012-12-16 12:13:00
6:33 AM,32.0,28.4,87,29.52,7.0,Calm,Calm,-,0.01,,Clear,0,2012-12-16 12:33:00
6:53 AM,32.0,28.4,87,29.53,10.0,Calm,Calm,-,N/A,,Clear,0,2012-12-16 12:53:00
7:33 AM,33.8,30.2,87,29.53,10.0,Calm,Calm,-,N/A,,Mostly Cloudy,0,2012-12-16 13:33:00
7:53 AM,33.8,30.2,87,29.53,10.0,NNW,3.5,-,N/A,,Mostly Cloudy,340,2012-12-16 13:53:00
8:13 AM,33.8,30.2,87,29.53,10.0,NNW,4.6,-,N/A,,Mostly Cloudy,340,2012-12-16 14:13:00
8:34 AM,33.8,30.2,87,29.54,10.0,NNW,3.5,-,N/A,,Mostly Cloudy,330,2012-12-16 14:34:00
8:53 AM,33.8,30.2,87,29.54,10.0,NNW,3.5,-,N/A,,Scattered Clouds,330,2012-12-16 14:53:00
9:13 AM,33.8,28.4,81,29.55,10.0,NW,5.8,-,N/A,,Scattered Clouds,320,2012-12-16 15:13:00
9:33 AM,33.8,28.4,81,29.55,10.0,NNW,3.5,-,N/A,,Mostly Cloudy,330,2012-12-16 15:33:00
9:53 AM,33.8,28.4,81,29.56,10.0,Calm,Calm,-,N/A,,Mostly Cloudy,0,2012-12-16 15:53:00
10:13 AM,33.8,28.4,81,29.57,10.0,NNW,4.6,-,N/A,,Mostly Cloudy,330,2012-12-16 16:13:00
10:33 AM,32.0,28.4,87,29.57,7.0,NNW,6.9,-,N/A,,Mostly Cloudy,330,2012-12-16 16:33:00
10:53 AM,32.0,26.6,80,29.57,7.0,NNW,5.8,-,N/A,,Overcast,340,2012-12-16 16:53:00
11:33 AM,30.2,24.8,80,29.57,7.0,Calm,Calm,-,N/A,,Mostly Cloudy,0,2012-12-16 17:33:00
11:53 AM,30.2,23.0,75,29.57,7.0,Calm,Calm,-,N/A,,Scattered Clouds,0,2012-12-16 17:53:00
12:13 PM,28.4,21.2,74,29.57,7.0,Calm,Calm,-,N/A,,Scattered Clouds,0,2012-12-16 18:13:00
12:33 PM,28.4,21.2,74,29.57,10.0,Calm,Calm,-,N/A,,Mostly Cloudy,0,2012-12-16 18:33:00
12:53 PM,28.4,21.2,74,29.58,10.0,Calm,Calm,-,N/A,,Scattered Clouds,0,2012-12-16 18:53:00
1:13 PM,28.4,21.2,74,29.57,10.0,Calm,Calm,-,N/A,,Scattered Clouds,0,2012-12-16 19:13:00
1:33 PM,28.4,19.4,69,29.57,10.0,Calm,Calm,-,N/A,,Clear,0,2012-12-16 19:33:00
1:53 PM,26.6,19.4,74,29.57,10.0,Calm,Calm,-,N/A,,Scattered Clouds,0,2012-12-16 19:53:00
2:13 PM,26.6,19.4,74,29.57,10.0,Calm,Calm,-,N/A,,Mostly Cloudy,0,2012-12-16 20:13:00
2:33 PM,26.6,17.6,69,29.57,10.0,Calm,Calm,-,N/A,,Mostly Cloudy,0,2012-12-16 20:33:00
2:53 PM,26.6,17.6,69,29.58,10.0,Calm,Calm,-,N/A,,Overcast,0,2012-12-16 20:53:00
3:13 PM,24.8,17.6,74,29.59,10.0,Calm,Calm,-,N/A,,Mostly Cloudy,0,2012-12-16 21:13:00
3:33 PM,24.8,17.6,74,29.60,10.0,Calm,Calm,-,N/A,,Scattered Clouds,0,2012-12-16 21:33:00
4:13 PM,24.8,17.6,74,29.61,10.0,Calm,Calm,-,N/A,,Scattered Clouds,0,2012-12-16 22:13:00
4:33 PM,24.8,17.6,74,29.61,10.0,Calm,Calm,-,N/A,,Scattered Clouds,0,2012-12-16 22:33:00
4:53 PM,23.0,17.6,80,29.62,10.0,Calm,Calm,-,N/A,,Scattered Clouds,0,2012-12-16 22:53:00
5:13 PM,23.0,17.6,80,29.62,10.0,Calm,Calm,-,N/A,,Mostly Cloudy,0,2012-12-16 23:13:00
5:53 PM,23.0,15.8,74,29.63,10.0,Calm,Calm,-,N/A,,Mostly Cloudy,0,2012-12-16 23:53:00
6:13 PM,21.2,15.8,80,29.63,10.0,Calm,Calm,-,N/A,,Overcast,0,2012-12-17 00:13:00
6:53 PM,21.2,15.8,80,29.64,10.0,Calm,Calm,-,N/A,,Scattered Clouds,0,2012-12-17 00:53:00
7:13 PM,21.2,15.8,80,29.64,10.0,Calm,Calm,-,N/A,,Scattered Clouds,0,2012-12-17 01:13:00
7:33 PM,21.2,15.8,80,29.64,10.0,Calm,Calm,-,N/A,,Clear,0,2012-12-17 01:33:00
7:53 PM,21.2,15.8,80,29.64,10.0,Calm,Calm,-,N/A,,Clear,0,2012-12-17 01:53:00
8:13 PM,21.2,15.8,80,29.64,10.0,Calm,Calm,-,N/A,,Clear,0,2012-12-17 02:13:00
8:33 PM,21.2,15.8,80,29.64,10.0,North,-9999.0,-,N/A,,Clear,0,2012-12-17 02:33:00
8:53 PM,21.2,15.8,80,29.64,10.0,North,-9999.0,-,N/A,,Clear,0,2012-12-17 02:53:00
9:13 PM,21.2,15.8,80,29.64,10.0,Calm,Calm,-,N/A,,Scattered Clouds,0,2012-12-17 03:13:00
9:33 PM,21.2,15.8,80,29.64,10.0,Calm,Calm,-,N/A,,Scattered Clouds,0,2012-12-17 03:33:00
9:53 PM,19.4,15.8,86,29.64,10.0,Calm,Calm,-,N/A,,Scattered Clouds,0,2012-12-17 03:53:00
10:13 PM,19.4,15.8,86,29.65,10.0,Calm,Calm,-,N/A,,Clear,0,2012-12-17 04:13:00
10:33 PM,19.4,15.8,86,29.65,10.0,Calm,Calm,-,N/A,,Clear,0,2012-12-17 04:33:00
10:53 PM,19.4,14.0,80,29.65,10.0,Calm,Calm,-,N/A,,Clear,0,2012-12-17 04:53:00
11:14 PM,19.4,14.0,80,29.65,10.0,Calm,Calm,-,N/A,,Clear,0,2012-12-17 05:14:00
11:33 PM,19.4,15.8,86,29.64,10.0,Calm,Calm,-,N/A,,Clear,0,2012-12-17 05:33:00
11:53 PM,19.4,15.8,86,29.65,10.0,Calm,Calm,-,N/A,,Clear,0,2012-12-17 05:53:00